| time (UTC) | temp C | wind direction | speed KPH | gust KPH | rain 1hr cm | rain 24hr cm | rain mn cm | humidity % | barometer mb |
| 20260502194647 | 31 | 163 | 35.4 | 62.8 | 0.00 | 0.00 | 0.00 | 18 | 966.6 |
| 20260502194131 | 32 | 151 | 12.9 | 40.2 | 0.00 | 0.00 | 0.00 | 18 | 966.6 |
| 20260502193636 | 32 | 157 | 3.2 | 51.5 | 0.00 | 0.00 | 0.00 | 19 | 966.5 |
| 20260502193140 | 32 | 178 | 19.3 | 51.5 | 0.00 | 0.00 | 0.00 | 20 | 966.6 |
| 20260502192638 | 31 | 140 | 11.3 | 49.9 | 0.00 | 0.00 | 0.00 | 20 | 966.7 |
| 20260502192127 | 31 | 169 | 19.3 | 49.9 | 0.00 | 0.00 | 0.00 | 21 | 966.9 |
| 20260502191631 | 31 | 150 | 9.7 | 43.5 | 0.00 | 0.00 | 0.00 | 21 | 966.8 |
| 20260502191135 | 31 | 177 | 22.5 | 43.5 | 0.00 | 0.00 | 0.00 | 20 | 966.9 |
| 20260502190656 | 31 | 148 | 25.7 | 46.7 | 0.00 | 0.00 | 0.00 | 21 | 966.9 |
| 20260502190133 | 31 | 175 | 22.5 | 46.7 | 0.00 | 0.00 | 0.00 | 21 | 967.1 |
| 20260502185659 | 31 | 159 | 9.7 | 53.1 | 0.00 | 0.00 | 0.00 | 21 | 967.1 |
| 20260502185142 | 31 | 173 | 20.9 | 61.2 | 0.00 | 0.00 | 0.00 | 21 | 967.2 |
| 20260502184627 | 31 | 319 | 9.7 | 49.9 | 0.00 | 0.00 | 0.00 | 22 | 967.4 |
| 20260502184130 | 31 | 192 | 17.7 | 35.4 | 0.00 | 0.00 | 0.00 | 22 | 967.4 |
| 20260502183654 | 31 | 154 | 8.0 | 41.8 | 0.00 | 0.00 | 0.00 | 22 | 967.6 |
| 20260502183137 | 31 | 151 | 22.5 | 59.5 | 0.00 | 0.00 | 0.00 | 23 | 967.6 |
| 20260502182703 | 31 | 169 | 24.1 | 59.5 | 0.00 | 0.00 | 0.00 | 23 | 967.6 |
| 20260502182139 | 31 | 173 | 19.3 | 33.8 | 0.00 | 0.00 | 0.00 | 23 | 967.7 |
| 20260502181643 | 30 | 167 | 14.5 | 35.4 | 0.00 | 0.00 | 0.00 | 22 | 967.7 |
| 20260502181128 | 30 | 177 | 17.7 | 40.2 | 0.00 | 0.00 | 0.00 | 22 | 967.9 |
| 20260502180632 | 30 | 155 | 22.5 | 67.6 | 0.00 | 0.00 | 0.00 | 22 | 968.0 |
| 20260502180130 | 31 | 166 | 30.6 | 67.6 | 0.00 | 0.00 | 0.00 | 22 | 968.0 |
| 20260502170149 | 30 | 190 | 19.3 | 46.7 | 0.00 | 0.00 | 0.00 | 24 | 968.2 |
| 20260502164201 | 30 | 321 | 17.7 | 37.0 | 0.00 | 0.00 | 0.00 | 21 | 968.2 |
| 20260502163644 | 30 | 167 | 11.3 | 35.4 | 0.00 | 0.00 | 0.00 | 20 | 968.2 |
| 20260502163143 | 29 | 309 | 12.9 | 43.5 | 0.00 | 0.00 | 0.00 | 21 | 968.2 |
| 20260502162627 | 28 | 157 | 17.7 | 51.5 | 0.00 | 0.00 | 0.00 | 21 | 968.2 |
| 20260502162151 | 28 | 312 | 11.3 | 51.5 | 0.00 | 0.00 | 0.00 | 21 | 968.2 |
| 20260502161635 | 28 | 121 | 17.7 | 49.9 | 0.00 | 0.00 | 0.00 | 21 | 968.1 |
| 20260502161200 | 28 | 158 | 24.1 | 49.9 | 0.00 | 0.00 | 0.00 | 22 | 968.2 |
| 20260502160636 | 28 | 163 | 25.7 | 49.9 | 0.00 | 0.00 | 0.00 | 21 | 968.2 |
| 20260502160140 | 28 | 173 | 9.7 | 41.8 | 0.00 | 0.00 | 0.00 | 21 | 968.2 |
| 20260502152207 | 27 | 170 | 14.5 | 30.6 | 0.00 | 0.00 | 0.00 | 19 | 967.9 |
| 20260502151643 | 26 | 180 | 16.1 | 27.4 | 0.00 | 0.00 | 0.00 | 20 | 967.8 |
| 20260502151127 | 26 | 163 | 11.3 | 25.7 | 0.00 | 0.00 | 0.00 | 21 | 967.8 |
| 20260502150631 | 26 | 155 | 4.8 | 17.7 | 0.00 | 0.00 | 0.00 | 21 | 967.7 |
| 20260502150137 | 26 | 333 | 3.2 | 17.7 | 0.00 | 0.00 | 0.00 | 22 | 967.7 |
| 20260502140127 | 21 | 326 | 0.0 | 6.4 | 0.00 | 0.00 | 0.00 | 28 | 967.4 |
| 20260502130642 | 18 | 334 | 0.0 | 3.2 | 0.00 | 0.00 | 0.00 | 29 | 966.4 |
| 20260502130146 | 18 | 334 | 0.0 | 0.0 | 0.00 | 0.00 | 0.00 | 29 | 966.4 |
| 20260502123636 | 18 | 334 | 0.0 | 1.6 | 0.00 | 0.00 | 0.00 | 28 | 966.0 |
| 20260502123140 | 18 | 334 | 0.0 | 4.8 | 0.00 | 0.00 | 0.00 | 29 | 966.1 |
| 20260502122639 | 18 | 334 | 0.0 | 4.8 | 0.00 | 0.00 | 0.00 | 30 | 965.9 |
| 20260502122140 | 18 | 334 | 0.0 | 1.6 | 0.00 | 0.00 | 0.00 | 29 | 965.8 |
| 20260502121644 | 18 | 334 | 0.0 | 0.0 | 0.00 | 0.00 | 0.00 | 29 | 965.8 |
| 20260502121129 | 18 | 334 | 0.0 | 0.0 | 0.00 | 0.00 | 0.00 | 29 | 965.8 |
| 20260502120654 | 18 | 334 | 0.0 | 0.0 | 0.00 | 0.00 | 0.00 | 30 | 965.8 |
| 20260502120137 | 18 | 334 | 0.0 | 0.0 | 0.00 | 0.00 | 0.00 | 30 | 965.7 |
| 20260502115701 | 18 | 334 | 0.0 | 0.0 | 0.00 | 0.00 | 0.00 | 30 | 965.7 |
| 20260502115157 | 18 | 334 | 0.0 | 0.0 | 0.00 | 0.00 | 0.00 | 29 | 965.7 |
| 20260502114640 | 19 | 334 | 0.0 | 0.0 | 0.00 | 0.00 | 0.00 | 29 | 965.7 |
| 20260502114125 | 19 | 334 | 0.0 | 0.0 | 0.00 | 0.00 | 0.00 | 28 | 965.6 |
| 20260502113630 | 19 | 334 | 0.0 | 0.0 | 0.00 | 0.00 | 0.00 | 28 | 965.6 |
| 20260502113136 | 19 | 334 | 0.0 | 0.0 | 0.00 | 0.00 | 0.00 | 28 | 965.6 |
| 20260502112633 | 19 | 334 | 0.0 | 0.0 | 0.00 | 0.00 | 0.00 | 28 | 965.6 |
| 20260502112137 | 19 | 334 | 0.0 | 1.6 | 0.00 | 0.00 | 0.00 | 27 | 965.6 |
| 20260502111642 | 19 | 334 | 0.0 | 1.6 | 0.00 | 0.00 | 0.00 | 28 | 965.6 |
| 20260502111146 | 19 | 334 | 0.0 | 1.6 | 0.00 | 0.00 | 0.00 | 28 | 965.6 |
| 20260502110708 | 20 | 334 | 0.0 | 4.8 | 0.00 | 0.00 | 0.00 | 28 | 965.6 |
| 20260502110151 | 20 | 334 | 0.0 | 6.4 | 0.00 | 0.00 | 0.00 | 28 | 965.6 |
| 20260502105629 | 20 | 334 | 0.0 | 6.4 | 0.00 | 0.00 | 0.00 | 28 | 965.5 |
| 20260502105155 | 20 | 334 | 1.6 | 6.4 | 0.00 | 0.00 | 0.00 | 28 | 965.6 |
| 20260502104638 | 20 | 334 | 0.0 | 3.2 | 0.00 | 0.00 | 0.00 | 27 | 965.6 |
| 20260502104143 | 20 | 334 | 0.0 | 0.0 | 0.00 | 0.00 | 0.00 | 26 | 965.5 |
| 20260502103702 | 20 | 334 | 0.0 | 3.2 | 0.00 | 0.00 | 0.00 | 26 | 965.4 |
| 20260502103126 | 20 | 334 | 0.0 | 0.0 | 0.00 | 0.00 | 0.00 | 26 | 965.3 |
| 20260502102630 | 20 | 334 | 0.0 | 0.0 | 0.00 | 0.00 | 0.00 | 25 | 965.4 |
| 20260502102131 | 20 | 334 | 0.0 | 0.0 | 0.00 | 0.00 | 0.00 | 25 | 965.3 |
| 20260502101140 | 21 | 334 | 0.0 | 0.0 | 0.00 | 0.00 | 0.00 | 24 | 965.4 |
| 20260502100646 | 21 | 334 | 0.0 | 0.0 | 0.00 | 0.00 | 0.00 | 24 | 965.4 |
| 20260502100142 | 21 | 334 | 0.0 | 0.0 | 0.00 | 0.00 | 0.00 | 24 | 965.3 |
| 20260502091132 | 23 | 334 | 0.0 | 4.8 | 0.00 | 0.00 | 0.00 | 20 | 965.1 |
| 20260502090637 | 23 | 334 | 0.0 | 6.4 | 0.00 | 0.00 | 0.00 | 20 | 965.1 |
| 20260502090141 | 23 | 334 | 0.0 | 6.4 | 0.00 | 0.00 | 0.00 | 20 | 965.0 |
| 20260502071204 | 25 | 336 | 9.7 | 17.7 | 0.00 | 0.00 | 0.00 | 14 | 964.5 |
| 20260502070646 | 25 | 333 | 8.0 | 19.3 | 0.00 | 0.00 | 0.00 | 14 | 964.6 |
| 20260502070149 | 25 | 342 | 14.5 | 20.9 | 0.00 | 0.00 | 0.00 | 14 | 964.5 |
| 20260502065633 | 25 | 331 | 14.5 | 24.1 | 0.00 | 0.00 | 0.00 | 14 | 964.5 |
| 20260502065139 | 25 | 360 | 16.1 | 24.1 | 0.00 | 0.00 | 0.00 | 13 | 964.5 |
| 20260502064636 | 25 | 360 | 9.7 | 20.9 | 0.00 | 0.00 | 0.00 | 13 | 964.4 |
| 20260502064142 | 25 | 339 | 12.9 | 25.7 | 0.00 | 0.00 | 0.00 | 13 | 964.4 |
| 20260502063626 | 26 | 335 | 14.5 | 25.7 | 0.00 | 0.00 | 0.00 | 13 | 964.3 |
| 20260502063131 | 26 | 5 | 12.9 | 22.5 | 0.00 | 0.00 | 0.00 | 13 | 964.3 |
| 20260502062629 | 26 | 17 | 12.9 | 22.5 | 0.00 | 0.00 | 0.00 | 13 | 964.2 |
| 20260502062135 | 26 | 22 | 11.3 | 20.9 | 0.00 | 0.00 | 0.00 | 13 | 964.2 |
| 20260502061641 | 26 | 24 | 8.0 | 25.7 | 0.00 | 0.00 | 0.00 | 13 | 964.0 |
| 20260502061145 | 26 | 14 | 4.8 | 25.7 | 0.00 | 0.00 | 0.00 | 13 | 964.0 |
| 20260502060642 | 26 | 26 | 4.8 | 19.3 | 0.00 | 0.00 | 0.00 | 13 | 963.8 |
| 20260502060127 | 25 | 27 | 6.4 | 19.3 | 0.00 | 0.00 | 0.00 | 13 | 963.7 |
| 20260502055630 | 25 | 38 | 4.8 | 19.3 | 0.00 | 0.00 | 0.00 | 13 | 963.8 |
| 20260502055134 | 25 | 10 | 3.2 | 16.1 | 0.00 | 0.00 | 0.00 | 13 | 963.8 |
| 20260502054640 | 25 | 9 | 1.6 | 9.7 | 0.00 | 0.00 | 0.00 | 14 | 963.8 |
| 20260502054138 | 25 | 5 | 3.2 | 9.7 | 0.00 | 0.00 | 0.00 | 14 | 963.7 |
| 20260502053643 | 25 | 5 | 3.2 | 9.7 | 0.00 | 0.00 | 0.00 | 14 | 963.7 |
| 20260502053147 | 25 | 5 | 1.6 | 9.7 | 0.00 | 0.00 | 0.00 | 14 | 963.6 |
| 20260502052630 | 25 | 5 | 1.6 | 14.5 | 0.00 | 0.00 | 0.00 | 15 | 963.7 |
| 20260502052127 | 25 | 5 | 4.8 | 14.5 | 0.00 | 0.00 | 0.00 | 15 | 963.6 |
| 20260502051634 | 25 | 123 | 0.0 | 3.2 | 0.00 | 0.00 | 0.00 | 16 | 963.6 |
| 20260502051138 | 25 | 123 | 0.0 | 4.8 | 0.00 | 0.00 | 0.00 | 16 | 963.6 |
| 20260502050643 | 25 | 123 | 1.6 | 6.4 | 0.00 | 0.00 | 0.00 | 16 | 963.6 |
| 20260502050141 | 25 | 123 | 1.6 | 16.1 | 0.00 | 0.00 | 0.00 | 17 | 963.6 |
| 20260502045626 | 25 | 122 | 3.2 | 16.1 | 0.00 | 0.00 | 0.00 | 19 | 963.5 |
| 20260502045129 | 25 | 162 | 0.0 | 0.0 | 0.00 | 0.00 | 0.00 | 19 | 963.6 |
| 20260502044635 | 25 | 162 | 0.0 | 4.8 | 0.00 | 0.00 | 0.00 | 19 | 963.5 |
| 20260502044133 | 25 | 162 | 0.0 | 4.8 | 0.00 | 0.00 | 0.00 | 20 | 963.5 |
| 20260502043637 | 25 | 162 | 0.0 | 0.0 | 0.00 | 0.00 | 0.00 | 20 | 963.4 |
| 20260502043204 | 26 | 162 | 0.0 | 0.0 | 0.00 | 0.00 | 0.00 | 20 | 963.4 |
| 20260502042648 | 26 | 162 | 0.0 | 0.0 | 0.00 | 0.00 | 0.00 | 19 | 963.4 |
| 20260502042126 | 26 | 162 | 0.0 | 0.0 | 0.00 | 0.00 | 0.00 | 19 | 963.4 |
| 20260502041631 | 26 | 162 | 0.0 | 1.6 | 0.00 | 0.00 | 0.00 | 19 | 963.3 |
| 20260502041136 | 26 | 162 | 0.0 | 1.6 | 0.00 | 0.00 | 0.00 | 19 | 963.2 |
| 20260502040641 | 26 | 162 | 0.0 | 1.6 | 0.00 | 0.00 | 0.00 | 19 | 963.2 |
| 20260502040139 | 26 | 162 | 0.0 | 4.8 | 0.00 | 0.00 | 0.00 | 19 | 963.1 |
| 20260502035624 | 26 | 162 | 0.0 | 4.8 | 0.00 | 0.00 | 0.00 | 19 | 963.0 |
| 20260502035128 | 26 | 162 | 0.0 | 1.6 | 0.00 | 0.00 | 0.00 | 19 | 963.0 |
| 20260502034632 | 27 | 162 | 0.0 | 0.0 | 0.00 | 0.00 | 0.00 | 19 | 963.0 |
| 20260502034130 | 27 | 162 | 0.0 | 3.2 | 0.00 | 0.00 | 0.00 | 19 | 962.9 |
| 20260502033634 | 27 | 162 | 0.0 | 3.2 | 0.00 | 0.00 | 0.00 | 19 | 962.8 |
| 20260502033139 | 27 | 162 | 0.0 | 12.9 | 0.00 | 0.00 | 0.00 | 19 | 962.8 |
| 20260502032644 | 27 | 162 | 3.2 | 12.9 | 0.00 | 0.00 | 0.00 | 18 | 962.8 |
| 20260502032147 | 27 | 162 | 3.2 | 8.0 | 0.00 | 0.00 | 0.00 | 18 | 962.6 |
| 20260502031623 | 27 | 162 | 0.0 | 9.7 | 0.00 | 0.00 | 0.00 | 18 | 962.6 |
| 20260502031129 | 28 | 162 | 4.8 | 9.7 | 0.00 | 0.00 | 0.00 | 17 | 962.5 |
| 20260502030632 | 28 | 162 | 0.0 | 9.7 | 0.00 | 0.00 | 0.00 | 17 | 962.4 |
| 20260502030134 | 28 | 162 | 1.6 | 9.7 | 0.00 | 0.00 | 0.00 | 17 | 962.4 |
| 20260502025633 | 28 | 162 | 4.8 | 11.3 | 0.00 | 0.00 | 0.00 | 17 | 962.2 |
| 20260502025139 | 28 | 162 | 6.4 | 11.3 | 0.00 | 0.00 | 0.00 | 17 | 962.2 |
| 20260502024643 | 28 | 162 | 3.2 | 14.5 | 0.00 | 0.00 | 0.00 | 17 | 962.1 |
| 20260502024147 | 28 | 162 | 6.4 | 14.5 | 0.00 | 0.00 | 0.00 | 16 | 962.1 |
| 20260502023631 | 28 | 162 | 6.4 | 14.5 | 0.00 | 0.00 | 0.00 | 16 | 962.0 |
| 20260502023130 | 29 | 162 | 6.4 | 17.7 | 0.00 | 0.00 | 0.00 | 16 | 962.0 |
| 20260502022635 | 29 | 162 | 4.8 | 19.3 | 0.00 | 0.00 | 0.00 | 16 | 961.9 |
| 20260502022202 | 29 | 162 | 1.6 | 16.1 | 0.00 | 0.00 | 0.00 | 16 | 961.9 |
| 20260502021647 | 29 | 162 | 1.6 | 19.3 | 0.00 | 0.00 | 0.00 | 16 | 961.9 |
| 20260502021144 | 29 | 163 | 9.7 | 22.5 | 0.00 | 0.00 | 0.00 | 16 | 961.8 |
| 20260502020629 | 30 | 155 | 9.7 | 22.5 | 0.00 | 0.00 | 0.00 | 16 | 961.8 |
| 20260502020155 | 30 | 148 | 9.7 | 24.1 | 0.00 | 0.00 | 0.00 | 17 | 961.7 |
| 20260502015639 | 30 | 159 | 9.7 | 24.1 | 0.00 | 0.00 | 0.00 | 16 | 961.6 |
| 20260502015143 | 30 | 155 | 14.5 | 24.1 | 0.00 | 0.00 | 0.00 | 15 | 961.6 |
| 20260502014642 | 30 | 159 | 12.9 | 22.5 | 0.00 | 0.00 | 0.00 | 15 | 961.5 |
| 20260502014125 | 30 | 165 | 9.7 | 37.0 | 0.00 | 0.00 | 0.00 | 15 | 961.7 |
| 20260502013629 | 30 | 165 | 16.1 | 37.0 | 0.00 | 0.00 | 0.00 | 15 | 961.6 |
| 20260502013156 | 30 | 164 | 14.5 | 32.2 | 0.00 | 0.00 | 0.00 | 15 | 961.6 |
| 20260502012632 | 30 | 159 | 8.0 | 27.4 | 0.00 | 0.00 | 0.00 | 15 | 961.6 |
| 20260502012138 | 30 | 159 | 9.7 | 27.4 | 0.00 | 0.00 | 0.00 | 16 | 961.6 |
| 20260502011643 | 30 | 148 | 8.0 | 20.9 | 0.00 | 0.00 | 0.00 | 16 | 961.7 |
| 20260502011147 | 30 | 148 | 9.7 | 20.9 | 0.00 | 0.00 | 0.00 | 14 | 961.6 |
| 20260502010624 | 30 | 146 | 8.0 | 16.1 | 0.00 | 0.00 | 0.00 | 13 | 961.7 |
| 20260502010128 | 30 | 171 | 9.7 | 20.9 | 0.00 | 0.00 | 0.00 | 13 | 961.6 |
| 20260502005632 | 30 | 171 | 3.2 | 20.9 | 0.00 | 0.00 | 0.00 | 14 | 961.6 |
| 20260502005137 | 30 | 171 | 9.7 | 20.9 | 0.00 | 0.00 | 0.00 | 14 | 961.7 |
| 20260502004643 | 31 | 171 | 6.4 | 27.4 | 0.00 | 0.00 | 0.00 | 14 | 961.6 |
| 20260502004139 | 31 | 159 | 12.9 | 25.7 | 0.00 | 0.00 | 0.00 | 15 | 961.7 |
| 20260502003625 | 30 | 163 | 9.7 | 40.2 | 0.00 | 0.00 | 0.00 | 15 | 961.7 |
| 20260502003129 | 30 | 163 | 9.7 | 40.2 | 0.00 | 0.00 | 0.00 | 15 | 961.7 |
| 20260502002653 | 31 | 180 | 16.1 | 30.6 | 0.00 | 0.00 | 0.00 | 15 | 961.7 |
| 20260502002131 | 31 | 150 | 3.2 | 19.3 | 0.00 | 0.00 | 0.00 | 17 | 961.8 |
| 20260502001635 | 31 | 150 | 3.2 | 16.1 | 0.00 | 0.00 | 0.00 | 15 | 961.8 |
| 20260502001200 | 31 | 5 | 0.0 | 17.7 | 0.00 | 0.00 | 0.00 | 15 | 961.9 |
| 20260502000623 | 31 | 5 | 3.2 | 29.0 | 0.00 | 0.00 | 0.00 | 15 | 961.9 |
| 20260502000148 | 31 | 350 | 17.7 | 29.0 | 0.00 | 0.00 | 0.00 | 15 | 962.0 |
| 20260501235626 | 31 | 342 | 12.9 | 25.7 | 0.00 | 0.00 | 0.00 | 15 | 962.0 |
| 20260501235151 | 31 | 351 | 19.3 | 25.7 | 0.00 | 0.00 | 0.00 | 16 | 962.1 |
| 20260501234634 | 31 | 9 | 0.0 | 12.9 | 0.00 | 0.00 | 0.00 | 19 | 962.0 |
| 20260501234137 | 31 | 12 | 3.2 | 16.1 | 0.00 | 0.00 | 0.00 | 19 | 962.1 |
| 20260501233643 | 31 | 5 | 1.6 | 17.7 | 0.00 | 0.00 | 0.00 | 19 | 962.1 |
| 20260501233208 | 31 | 5 | 8.0 | 17.7 | 0.00 | 0.00 | 0.00 | 19 | 962.1 |
| 20260501232624 | 31 | 360 | 3.2 | 17.7 | 0.00 | 0.00 | 0.00 | 20 | 962.2 |
| 20260501232128 | 31 | 127 | 3.2 | 14.5 | 0.00 | 0.00 | 0.00 | 20 | 962.2 |
| 20260501231654 | 30 | 124 | 1.6 | 14.5 | 0.00 | 0.00 | 0.00 | 20 | 962.2 |
| 20260501231139 | 30 | 111 | 1.6 | 20.9 | 0.00 | 0.00 | 0.00 | 20 | 962.3 |
| 20260501230639 | 30 | 360 | 8.0 | 20.9 | 0.00 | 0.00 | 0.00 | 20 | 962.3 |
| 20260501230144 | 30 | 163 | 4.8 | 24.1 | 0.00 | 0.00 | 0.00 | 20 | 962.2 |
| 20260501225701 | 30 | 157 | 9.7 | 22.5 | 0.00 | 0.00 | 0.00 | 21 | 962.3 |
| 20260501225124 | 30 | 43 | 6.4 | 17.7 | 0.00 | 0.00 | 0.00 | 21 | 962.3 |
| 20260501224628 | 30 | 144 | 6.4 | 17.7 | 0.00 | 0.00 | 0.00 | 21 | 962.4 |
| 20260501224133 | 30 | 333 | 3.2 | 17.7 | 0.00 | 0.00 | 0.00 | 21 | 962.5 |
| 20260501223638 | 30 | 5 | 4.8 | 20.9 | 0.00 | 0.00 | 0.00 | 21 | 962.5 |
| 20260501223136 | 30 | 153 | 4.8 | 25.7 | 0.00 | 0.00 | 0.00 | 21 | 962.7 |
| 20260501222625 | 30 | 159 | 12.9 | 32.2 | 0.00 | 0.00 | 0.00 | 21 | 962.7 |
| 20260501222128 | 30 | 161 | 9.7 | 32.2 | 0.00 | 0.00 | 0.00 | 21 | 962.7 |
| 20260501221632 | 30 | 150 | 8.0 | 29.0 | 0.00 | 0.00 | 0.00 | 22 | 962.8 |
| 20260501221135 | 30 | 333 | 4.8 | 35.4 | 0.00 | 0.00 | 0.00 | 22 | 962.8 |
| 20260501220632 | 30 | 190 | 22.5 | 35.4 | 0.00 | 0.00 | 0.00 | 21 | 962.9 |
| 20260501220137 | 30 | 154 | 12.9 | 24.1 | 0.00 | 0.00 | 0.00 | 22 | 963.0 |
| 20260501215642 | 31 | 162 | 12.9 | 27.4 | 0.00 | 0.00 | 0.00 | 21 | 963.1 |
| 20260501215147 | 31 | 165 | 12.9 | 27.4 | 0.00 | 0.00 | 0.00 | 22 | 963.1 |
| 20260501214625 | 31 | 154 | 9.7 | 25.7 | 0.00 | 0.00 | 0.00 | 22 | 963.2 |
| 20260501214129 | 31 | 360 | 8.0 | 16.1 | 0.00 | 0.00 | 0.00 | 22 | 963.4 |
| 20260501213631 | 31 | 155 | 1.6 | 16.1 | 0.00 | 0.00 | 0.00 | 22 | 963.4 |
| 20260501213157 | 31 | 155 | 11.3 | 27.4 | 0.00 | 0.00 | 0.00 | 22 | 963.5 |
| 20260501212641 | 31 | 157 | 9.7 | 32.2 | 0.00 | 0.00 | 0.00 | 21 | 963.5 |
| 20260501212140 | 31 | 163 | 6.4 | 29.0 | 0.00 | 0.00 | 0.00 | 21 | 963.5 |
| 20260501211624 | 31 | 146 | 4.8 | 17.7 | 0.00 | 0.00 | 0.00 | 21 | 963.8 |
| 20260501211128 | 31 | 120 | 3.2 | 20.9 | 0.00 | 0.00 | 0.00 | 21 | 963.8 |
| 20260501210632 | 31 | 355 | 4.8 | 20.9 | 0.00 | 0.00 | 0.00 | 21 | 963.8 |
| 20260501210153 | 31 | 46 | 4.8 | 19.3 | 0.00 | 0.00 | 0.00 | 22 | 963.9 |
| 20260501205637 | 30 | 165 | 6.4 | 19.3 | 0.00 | 0.00 | 0.00 | 23 | 964.0 |
| 20260501205136 | 30 | 159 | 4.8 | 29.0 | 0.00 | 0.00 | 0.00 | 23 | 964.1 |
| 20260501204624 | 30 | 188 | 12.9 | 29.0 | 0.00 | 0.00 | 0.00 | 23 | 964.1 |
| 20260501204127 | 30 | 171 | 6.4 | 43.5 | 0.00 | 0.00 | 0.00 | 23 | 964.1 |
| 20260501203632 | 30 | 166 | 9.7 | 43.5 | 0.00 | 0.00 | 0.00 | 22 | 964.2 |
| 20260501203137 | 31 | 161 | 8.0 | 19.3 | 0.00 | 0.00 | 0.00 | 21 | 964.2 |
| 20260501202634 | 32 | 342 | 1.6 | 19.3 | 0.00 | 0.00 | 0.00 | 20 | 964.3 |
| 20260501202139 | 32 | 360 | 9.7 | 19.3 | 0.00 | 0.00 | 0.00 | 20 | 964.4 |
| 20260501201623 | 31 | 13 | 0.0 | 14.5 | 0.00 | 0.00 | 0.00 | 22 | 964.4 |
| 20260501201148 | 30 | 16 | 6.4 | 19.3 | 0.00 | 0.00 | 0.00 | 22 | 964.6 |
| 20260501200626 | 30 | 150 | 8.0 | 17.7 | 0.00 | 0.00 | 0.00 | 23 | 964.8 |
| 20260501200130 | 30 | 138 | 1.6 | 29.0 | 0.00 | 0.00 | 0.00 | 23 | 964.7 |
| 20260501195634 | 30 | 126 | 4.8 | 32.2 | 0.00 | 0.00 | 0.00 | 23 | 964.8 |
| 20260501195137 | 30 | 152 | 9.7 | 32.2 | 0.00 | 0.00 | 0.00 | 22 | 964.8 |